GALAXY 33 (G-33)

Last updated on Thu Nov 21 2024 00:02:44 GMT+0000 (Coordinated Universal Time)

1 54026U 22128A 24325.31714347 .00000080 00000+0 00000+0 0 9994 2 54026 0.0152 342.3840 0001898 255.5958 163.0309 1.00272660 7986
UTC large
Height (km)
Speed (km/s)
/
Latitude / Longitude
Inclination (degrees)
Orbital Period (minutes)
Azimuth
Elevation
Range (km)
Doppler Factor

Next 0 passes for location: London (51.5072 / 0.1276)

Sorry there are no passes over London.